Погода в Известковом

Россия / Еврейская автономная область     48°59′15″N   131°32′49″E
темп.,
°C
ветер,
м/с
пор.,
м/с
влажн.,
%
обл.,
%
осадки,
мм/ч
давл.,
гПа
погр.,
м
21 апреля, ср
ср2101:00+1зсз25275 0.0 101792
04:00−1зсз22370 0.0 101818
07:000сз11350 0.0 102010
10:00+10зюз25222 0.0 1019563
13:00+17зюз35173 0.0 10171318
16:00+19юз24170 0.0 10151737
19:00+17ююз22260 0.0 101632
22:00+9юв00400 0.0 101810
22 апреля, чт
чт2201:00+7св22490 0.0 102014
04:00+5св22530 0.0 102023
07:00+5всв22500 0.0 102145
10:00+14вюв37273 0.0 1019667
13:00+20юв562441 0.0 10181181
16:00+23ююв462379 0.0 10162010
19:00+21ююв363099 0.0 1016247
22:00+13сз1149100 0.0 101810
23 апреля, пт
пт2301:00+11сз1151100 0.0 101910
04:00+11сз1145100 0.0 101910
07:00+10зсз1149100 0.0 101914
10:00+14зсз3547100 0.0 1020507
13:00+15сз4548100 0.0 1020868
16:00+12сз4655100 0.1 1020879
19:00+4сз51379100 0.0 1023637
22:00+5сз5114899 0.0 10241187
24 апреля, сб
сб2401:00+3ссз51134100 0.0 10241014
04:000сз5124198 0.0 1025762
07:00−1сз513490 0.0 1026738
10:00+4ссз610260 0.0 10251193
13:00+8сз610250 0.0 10231804
16:00+9сз7122380 0.0 10202586
19:00+8сз614288 0.0 10192940
22:00+5зсз412345 0.0 1019749
25 апреля, вс
вс2501:00+5зсз613364 0.0 10181353
04:00+3сз514475 0.0 10171520
07:00+1сз615500 0.0 10181730
10:00+4ссз610230 0.0 10191897
13:00+8ссз58160 0.0 10182177
16:00+9ссз59150 0.0 10172255
19:00+8ссз48195 0.0 10171986
22:00+2зсз22325 0.0 102015